| time (UTC) | temp C | wind direction | speed KPH | gust KPH | rain 1hr cm | rain 24hr cm | rain mn cm | humidity % | barometer mb |
| 20260504050202 | 10 | 240 | 8.0 | 30.6 | 0.00 | 0.00 | 0.00 | 69 | 1009.0 |
| 20260504045202 | 10 | 234 | 4.8 | 22.5 | 0.00 | 0.00 | 0.00 | 68 | 1009.1 |
| 20260504044225 | 10 | 270 | 6.4 | 16.1 | 0.00 | 0.00 | 0.00 | 66 | 1009.1 |
| 20260504043202 | 10 | 265 | 8.0 | 19.3 | 0.00 | 0.00 | 0.00 | 65 | 1009.2 |
| 20260504042201 | 10 | 263 | 8.0 | 27.4 | 0.00 | 0.00 | 0.00 | 64 | 1009.1 |
| 20260504041202 | 10 | 264 | 4.8 | 24.1 | 0.00 | 0.00 | 0.00 | 62 | 1009.1 |
| 20260504040202 | 11 | 261 | 4.8 | 14.5 | 0.00 | 0.00 | 0.00 | 61 | 1009.0 |
| 20260504035202 | 11 | 281 | 11.3 | 30.6 | 0.00 | 0.00 | 0.00 | 60 | 1009.0 |
| 20260504034202 | 11 | 257 | 4.8 | 12.9 | 0.00 | 0.00 | 0.00 | 60 | 1008.9 |
| 20260504033202 | 11 | 263 | 4.8 | 12.9 | 0.00 | 0.00 | 0.00 | 59 | 1009.0 |
| 20260504032202 | 12 | 235 | 8.0 | 20.9 | 0.00 | 0.00 | 0.00 | 57 | 1009.1 |
| 20260504031202 | 12 | 242 | 6.4 | 16.1 | 0.00 | 0.00 | 0.00 | 57 | 1009.1 |
| 20260504030201 | 12 | 268 | 8.0 | 19.3 | 0.00 | 0.00 | 0.00 | 56 | 1009.1 |
| 20260504025224 | 12 | 245 | 6.4 | 27.4 | 0.00 | 0.00 | 0.00 | 56 | 1009.1 |
| 20260504024202 | 12 | 274 | 9.7 | 22.5 | 0.00 | 0.00 | 0.00 | 56 | 1009.1 |
| 20260504023203 | 12 | 262 | 9.7 | 25.7 | 0.00 | 0.00 | 0.00 | 56 | 1009.2 |
| 20260504022223 | 11 | 260 | 9.7 | 24.1 | 0.00 | 0.00 | 0.00 | 57 | 1009.1 |
| 20260504021202 | 11 | 233 | 1.6 | 19.3 | 0.00 | 0.00 | 0.00 | 60 | 1009.2 |
| 20260504020202 | 11 | 231 | 3.2 | 22.5 | 0.00 | 0.00 | 0.00 | 60 | 1009.3 |
| 20260504015204 | 11 | 242 | 4.8 | 19.3 | 0.00 | 0.00 | 0.00 | 59 | 1009.3 |
| 20260504014225 | 11 | 215 | 4.8 | 14.5 | 0.00 | 0.00 | 0.00 | 59 | 1009.2 |
| 20260504013202 | 11 | 256 | 6.4 | 19.3 | 0.00 | 0.00 | 0.00 | 60 | 1009.2 |
| 20260504012203 | 11 | 266 | 8.0 | 29.0 | 0.00 | 0.00 | 0.00 | 59 | 1009.3 |
| 20260504011202 | 11 | 228 | 8.0 | 32.2 | 0.00 | 0.00 | 0.00 | 58 | 1009.3 |
| 20260504010202 | 11 | 219 | 6.4 | 25.7 | 0.00 | 0.00 | 0.00 | 58 | 1009.3 |
| 20260504005202 | 11 | 251 | 4.8 | 30.6 | 0.00 | 0.00 | 0.00 | 60 | 1009.2 |
| 20260504004202 | 11 | 278 | 8.0 | 25.7 | 0.00 | 0.00 | 0.00 | 60 | 1009.2 |
| 20260504003202 | 11 | 277 | 6.4 | 22.5 | 0.00 | 0.00 | 0.00 | 60 | 1009.2 |
| 20260504002202 | 11 | 257 | 6.4 | 19.3 | 0.00 | 0.00 | 0.00 | 62 | 1009.2 |
| 20260504000223 | 11 | 233 | 4.8 | 14.5 | 0.00 | 0.00 | 0.00 | 61 | 1009.3 |
| 20260503235202 | 11 | 261 | 3.2 | 14.5 | 0.00 | 0.00 | 0.00 | 61 | 1009.4 |
| 20260503234202 | 11 | 246 | 4.8 | 19.3 | 0.00 | 0.00 | 0.00 | 62 | 1009.4 |
| 20260503233202 | 11 | 255 | 4.8 | 16.1 | 0.00 | 0.00 | 0.00 | 62 | 1009.5 |
| 20260503232202 | 11 | 270 | 8.0 | 25.7 | 0.00 | 0.00 | 0.00 | 64 | 1009.5 |
| 20260503231202 | 11 | 286 | 6.4 | 17.7 | 0.00 | 0.00 | 0.00 | 66 | 1009.7 |
| 20260503230202 | 11 | 288 | 8.0 | 14.5 | 0.00 | 0.00 | 0.00 | 66 | 1009.8 |
| 20260503225224 | 11 | 284 | 8.0 | 24.1 | 0.00 | 0.00 | 0.00 | 65 | 1009.8 |
| 20260503224202 | 11 | 268 | 6.4 | 17.7 | 0.00 | 0.00 | 0.00 | 65 | 1009.8 |
| 20260503223204 | 11 | 288 | 9.7 | 19.3 | 0.00 | 0.00 | 0.00 | 63 | 1009.9 |
| 20260503222223 | 11 | 270 | 11.3 | 25.7 | 0.00 | 0.00 | 0.00 | 64 | 1009.8 |
| 20260503221202 | 11 | 264 | 9.7 | 22.5 | 0.00 | 0.00 | 0.00 | 66 | 1009.9 |
| 20260503220201 | 11 | 282 | 11.3 | 29.0 | 0.00 | 0.00 | 0.00 | 65 | 1009.8 |
| 20260503215202 | 11 | 260 | 12.9 | 25.7 | 0.00 | 0.00 | 0.00 | 65 | 1009.7 |
| 20260503214202 | 11 | 264 | 8.0 | 33.8 | 0.00 | 0.00 | 0.00 | 65 | 1009.6 |
| 20260503213202 | 11 | 270 | 6.4 | 19.3 | 0.00 | 0.00 | 0.00 | 65 | 1009.5 |
| 20260503211203 | 11 | 271 | 9.7 | 29.0 | 0.00 | 0.00 | 0.00 | 65 | 1009.4 |
| 20260503210202 | 10 | 258 | 6.4 | 24.1 | 0.00 | 0.00 | 0.00 | 65 | 1009.5 |
| 20260503205201 | 10 | 244 | 6.4 | 24.1 | 0.00 | 0.00 | 0.00 | 64 | 1009.7 |
| 20260503203203 | 11 | 219 | 6.4 | 20.9 | 0.00 | 0.00 | 0.00 | 63 | 1009.8 |
| 20260503202202 | 11 | 270 | 8.0 | 33.8 | 0.00 | 0.00 | 0.00 | 63 | 1009.9 |
| 20260503201203 | 11 | 237 | 6.4 | 24.1 | 0.00 | 0.00 | 0.00 | 62 | 1010.0 |
| 20260503200204 | 11 | 263 | 9.7 | 20.9 | 0.00 | 0.00 | 0.00 | 61 | 1010.2 |
| 20260503195205 | 12 | 245 | 8.0 | 30.6 | 0.00 | 0.00 | 0.00 | 61 | 1010.4 |
| 20260503194202 | 12 | 218 | 6.4 | 20.9 | 0.00 | 0.00 | 0.00 | 60 | 1010.4 |
| 20260503193223 | 12 | 256 | 9.7 | 25.7 | 0.00 | 0.00 | 0.00 | 60 | 1010.6 |
| 20260503192203 | 11 | 269 | 9.7 | 24.1 | 0.00 | 0.00 | 0.00 | 60 | 1010.9 |
| 20260503191202 | 11 | 241 | 9.7 | 27.4 | 0.00 | 0.00 | 0.00 | 59 | 1011.0 |
| 20260503190203 | 11 | 281 | 14.5 | 30.6 | 0.00 | 0.00 | 0.00 | 58 | 1011.1 |
| 20260503185203 | 12 | 253 | 9.7 | 37.0 | 0.00 | 0.00 | 0.00 | 56 | 1011.2 |
| 20260503184202 | 12 | 277 | 11.3 | 30.6 | 0.00 | 0.00 | 0.00 | 56 | 1011.3 |
| 20260503183202 | 12 | 254 | 12.9 | 29.0 | 0.00 | 0.00 | 0.00 | 55 | 1011.5 |
| 20260503182205 | 12 | 238 | 8.0 | 22.5 | 0.00 | 0.00 | 0.00 | 52 | 1011.6 |
| 20260503181202 | 12 | 252 | 8.0 | 19.3 | 0.00 | 0.00 | 0.00 | 55 | 1011.6 |
| 20260503180202 | 11 | 227 | 8.0 | 25.7 | 0.00 | 0.00 | 0.00 | 54 | 1011.8 |
| 20260503175202 | 11 | 219 | 6.4 | 19.3 | 0.00 | 0.00 | 0.00 | 59 | 1011.9 |
| 20260503174224 | 10 | 242 | 6.4 | 19.3 | 0.00 | 0.00 | 0.00 | 60 | 1012.2 |
| 20260503173202 | 10 | 255 | 4.8 | 17.7 | 0.00 | 0.00 | 0.00 | 61 | 1012.3 |
| 20260503172203 | 11 | 228 | 6.4 | 16.1 | 0.00 | 0.00 | 0.00 | 64 | 1012.6 |
| 20260503171225 | 11 | 227 | 6.4 | 19.3 | 0.00 | 0.00 | 0.00 | 62 | 1012.6 |
| 20260503170202 | 10 | 222 | 6.4 | 25.7 | 0.00 | 0.00 | 0.00 | 60 | 1012.7 |
| 20260503160203 | 10 | 238 | 6.4 | 12.9 | 0.00 | 0.00 | 0.00 | 58 | 1013.4 |
| 20260503150202 | 9 | 242 | 8.0 | 19.3 | 0.00 | 0.00 | 0.00 | 64 | 1013.8 |
| 20260503140204 | 8 | 269 | 9.7 | 25.7 | 0.00 | 0.00 | 0.00 | 75 | 1014.0 |
| 20260503131202 | 7 | 265 | 6.4 | 19.3 | 0.00 | 0.00 | 0.00 | 80 | 1014.2 |
| 20260503130223 | 6 | 211 | 4.8 | 14.5 | 0.00 | 0.00 | 0.00 | 81 | 1014.2 |
| 20260503120202 | 3 | 235 | 1.6 | 4.8 | 0.00 | 0.00 | 0.00 | 89 | 1014.3 |
| 20260503110225 | 0 | 242 | 0.0 | 0.0 | 0.00 | 0.00 | 0.00 | 89 | 1014.4 |
| 20260503100204 | -1 | 242 | 0.0 | 0.0 | 0.00 | 0.00 | 0.00 | 88 | 1014.3 |
| 20260503090202 | -1 | 242 | 0.0 | 0.0 | 0.00 | 0.00 | 0.00 | 87 | 1014.6 |
| 20260503081201 | 0 | 242 | 0.0 | 0.0 | 0.00 | 0.00 | 0.00 | 86 | 1014.7 |
| 20260503080204 | 0 | 242 | 0.0 | 0.0 | 0.00 | 0.00 | 0.00 | 86 | 1014.7 |
| 20260503072203 | 0 | 242 | 0.0 | 0.0 | 0.00 | 0.00 | 0.00 | 85 | 1014.6 |
| 20260503071225 | 0 | 242 | 0.0 | 0.0 | 0.00 | 0.00 | 0.00 | 84 | 1014.6 |
| 20260503070226 | 0 | 242 | 0.0 | 0.0 | 0.00 | 0.00 | 0.00 | 84 | 1014.5 |
| 20260503060204 | 0 | 242 | 0.0 | 0.0 | 0.00 | 0.00 | 0.00 | 83 | 1014.9 |